Regional Weather Roundup
Issued by NWS

Home | Current Version | Previous Version | Graphics & Text | Print | Product List | Glossary Off
Versions: 1 2 3 4 5 6 7 8 9 10 11 12 13 14 15 16 17 18 19 20 21 22 23 24 25 26 27 28 29 30 31 32 33 34 35 36 37 38 39 40 41 42 43 44 45 46 47 48 49 50

000
ASUS43 KDTX 220301
RWRMI
MICHIGAN HOURLY REGIONAL WEATHER ROUNDUP
NATIONAL WEATHER SERVICE DETROIT/PONTIAC MI
1100 PM EDT TUE OCT 21 2014

NOTE: "FAIR" INDICATES FEW OR NO CLOUDS BELOW 12,000 FEET WITH NO
SIGNIFICANT WEATHER AND/OR OBSTRUCTION TO VISIBILITY.

MIZ047>049-052>055-059>063-066>070-074>076-081>083-220400-
SOUTHEAST LOWER MICHIGAN

CITY           SKY/WX    TMP DP  RH WIND       PRES   REMARKS
ADRIAN         CLOUDY    44  35  70 NE12      30.23R
ALMA           CLEAR     38  33  84 N5        30.28R WCI  34
ANN ARBOR      CLOUDY    44  34  67 N12       30.22R
BAD AXE        CLOUDY    43  38  82 N10G21    30.25R
CARO           CLOUDY    43  36  76 N3        30.25R
DETROIT CITY   CLOUDY    47  37  68 N14       30.20R
DETROIT        CLOUDY    45  36  70 N14       30.21R
FLINT          CLOUDY    45  35  68 NE10G18   30.25R
GROSSE ILE     CLOUDY    46  37  71 N12G20    30.18S
HILLSDALE      CLOUDY    43  38  82 N3        30.22R
HOWELL         CLOUDY    40  35  81 CALM      30.23S

CITY           SKY/WX    TMP DP  RH WIND       PRES   REMARKS
JACKSON        MOCLDY    39  35  86 N5        30.24R
LAMBERTVILLE   CLOUDY    45  36  70 N9        30.22R
LANSING        CLEAR     39  33  79 NE5       30.26R
LAPEER         CLOUDY    43  35  74 N8        30.23S
MASON          CLEAR     38  34  86 CALM      30.25R
MONROE         CLOUDY    45  37  76 N8        30.20R
MT. CLEMENS    CLOUDY    45  40  83 N16       30.18R
PONTIAC        CLOUDY    43  35  73 N10G20    30.20R
PORT HOPE        N/A     46  39  76 NE23      30.24R
PORT HURON     CLOUDY    46  41  81 N14G22    30.19R
TRI CITIES     CLEAR     40  31  70 N10       30.27R WCI  33
TROY           CLOUDY    45  37  71 N9        30.22S
SAGINAW HB     CLOUDY    45  36  70 N9        30.25S
$$
MIZ043>046-050>051-056>058-064>065-071>073-077>080-220400-
SOUTHWEST LOWER MICHIGAN

CITY           SKY/WX    TMP DP  RH WIND       PRES   REMARKS
BATTLE CREEK   CLEAR     38  33  82 CALM      30.25R
BENTON HARBOR  CLEAR     35  34  96 CALM      30.25R
BIG RAPIDS     CLEAR     38  37  94 CALM      30.27R
COLDWATER      CLEAR     38  36  93 CALM      30.25R
FREMONT        FAIR      39  32  74 NE3       30.27R
HOLLAND        CLEAR     42  37  82 CALM      30.26R
GRAND RAPIDS   CLEAR     39  35  86 E6        30.26R WCI  35
IONIA          FAIR      40  35  81 CALM      30.26R
KALAMAZOO      CLEAR     36  33  89 CALM      30.25R
LUDINGTON      CLEAR     37  33  86 NE3       30.29S
MARSHALL       CLEAR     35  32  90 CALM      30.24R
MOUNT PLEASANT CLEAR     37  31  78 N6        30.28R WCI  33
MUSKEGON       CLEAR     42  34  73 N7        30.27R
SOUTH HAVEN    CLEAR     35  34  96 CALM      30.25R
$$
MIZ016>042-220400-
NORTHERN LOWER MICHIGAN

CITY           SKY/WX    TMP DP  RH WIND       PRES   REMARKS
ALPENA         CLOUDY    35  32  88 CALM      30.31R
BEAVER ISLAND  CLEAR     32  31  98 CALM      30.31S
BELLAIRE       CLEAR     32  30  94 CALM      30.30S
CADILLAC       CLEAR     32  31  97 CALM      30.27R
CHARLEVOIX     CLEAR     38  32  79 CALM      30.32S
FRANKFORT      CLEAR     37  32  82 CALM      30.29R
GAYLORD        CLEAR     33  27  78 CALM      30.28R
GRAYLING       CLEAR     29  28  94 CALM      30.29R
HARBOR SPRINGS CLEAR     32  29  89 CALM      30.30S
HOUGHTON LAKE  CLEAR     30  25  81 NE6       30.28S WCI  24
MANISTEE       CLEAR     34  27  75 CALM      30.30R
OSCODA         CLOUDY    43  35  72 NE14      30.27S
PELLSTON       CLEAR     27  26  96 CALM      30.31R
TRAVERSE CITY  CLEAR     36  29  75 CALM      30.29R
$$
MIZ007>008-015-220400-
EASTERN UPPER MICHIGAN

CITY           SKY/WX    TMP DP  RH WIND       PRES   REMARKS
KINROSS        CLEAR     36  30  80 E9        30.32R WCI  29
MACKINAC ISLAN CLEAR     41  32  72 E9G16     30.30S
NEWBERRY       CLEAR     31  29  92 NE3       30.31R
S. S. MARIE    CLEAR     37  28  70 E8        30.32R WCI  31
MUNISING         N/A     31  27  85 S7        30.32R WCI  24
$$
MIZ004>006-011>014-085-220400-
CENTRAL UPPER MICHIGAN

CITY           SKY/WX    TMP DP  RH WIND       PRES   REMARKS
MANISTIQUE     CLEAR     29  28  94 N3        30.31S
ESCANABA       CLEAR     34  28  80 N3        30.32R
MENOMINEE      CLEAR     37  28  70 N5        30.30R WCI  34
SAWYER-GWINN   PTCLDY    29  27  91 CALM      30.30S
$$
MIZ001>003-009>011-084-220400-
WESTERN UPPER MICHIGAN

CITY           SKY/WX    TMP DP  RH WIND       PRES   REMARKS
IRON MOUNTAIN  CLEAR     34  28  79 E3        30.29R
HOUGHTON       PTCLDY    34  30  85 E5        30.29R WCI  30
COPPER HARBOR    N/A     37  31  78 S3        30.30S
IRONWOOD       CLEAR     36  34  93 E3        30.23R
$$

ABBREVIATIONS USED IN REMARKS
   TC - TEMPERATURE IN CELSIUS
  WCI - WIND CHILL INDEX
   HX - HEAT INDEX
  VSB - VISIBILITY




USA.gov is the U.S. government's official web portal to all federal, state and local government web resources and services.